Location: Castro Valley
(37.6940°N, 122.0850°W)
Time: 16:52:21
(UTC-07:00)

Amateur Radio Satellites - All Passes

Search period start: 24 October 2014 16:22
Search period end: 25 October 2014 16:22
Location: Castro Valley, 37.6940°N, 122.0850°W

Satellite Date Start Highest point End Downlink Frequencies (MHz)
Time Altitude Azimuth
Gurwin Techsat 1B 24 Oct 16:35:12 16:37:55 14° 269° (W) 16:40:40 435.225 FM
TMSAT-1 24 Oct 16:46:18 16:49:17 15° 268° (W) 16:52:16 436.925 FM
JAS-2 24 Oct 16:49:48 16:54:36 26° 62° (ENE) 16:59:52 435.800 - 435.900 CW/SSB, 435.910 FM
Hamsat 24 Oct 17:15:04 17:17:58 18° 68° (ENE) 17:20:52 145.90 MHz
Saudisat 1A 24 Oct 17:21:09 17:25:34 70° 242° (WSW) 17:29:56 436.775 MHz
Uosat F 24 Oct 17:31:24 17:35:56 34° 262° (W) 17:40:30 435.120 FM
OPAL 24 Oct 17:35:43 17:39:35 23° 97° (E) 17:43:26 ?
AO-40 24 Oct 17:56:01 22:45:43 43° 187° (S) 04:27:18 Beacon 2401.320
AO-7 24 Oct 18:07:16 18:13:32 24° 266° (W) 18:19:51 29.400 - 29.500 MHz
ISS 24 Oct 18:10:57 18:12:31 13° 20° (NNE) 18:14:06 145.800 FM
JAS-2 24 Oct 18:33:39 18:39:13 47° 263° (W) 18:45:32 435.800 - 435.900 CW/SSB, 435.910 FM
SO-67 24 Oct 18:36:49 18:38:53 15° 69° (ENE) 18:40:57 435.3500 MHz FM
Hamsat 24 Oct 18:49:52 18:53:40 33° 263° (W) 18:57:28 145.90 MHz
OPAL 24 Oct 19:14:00 19:18:32 37° 292° (WNW) 19:23:02 ?
STRAND 1 24 Oct 19:19:22 19:23:54 30° 97° (E) 19:28:23 ?
KITSAT 1 24 Oct 19:26:12 19:29:54 13° 30° (NNE) 19:33:35 435.175 FM
ISS 24 Oct 19:46:29 19:49:47 60° 38° (NE) 19:53:05 145.800 FM
SO-67 24 Oct 20:08:45 20:11:38 25° 264° (W) 20:14:32 435.3500 MHz FM
RS-15 24 Oct 20:47:36 20:54:43 20° 100° (E) 21:01:44 29.354 - 29.394 USB, Beacon 29.352 USB
HO-68 24 Oct 20:51:05 20:58:03 58° 69° (ENE) 21:05:04 435.675 MHz FM
STRAND 1 24 Oct 20:58:34 21:02:59 29° 292° (WNW) 21:07:22 ?
Oscar 11 24 Oct 21:05:39 21:08:29 17° 67° (ENE) 21:11:18 145.825 FM, Beacon 2401.500 USB
SO-50 24 Oct 21:16:40 21:20:27 22° 48° (NE) 21:24:15 436.795 FM
KITSAT 1 24 Oct 21:19:40 21:27:29 51° 55° (NE) 21:35:16 435.175 FM
ISS 24 Oct 21:24:38 21:26:06 12° 232° (SW) 21:27:32 145.800 FM
ZACube-1 24 Oct 21:53:48 21:57:35 26° 70° (ENE) 22:01:20 437.345 MHz
UKube-1 24 Oct 21:58:21 22:02:41 79° 76° (ENE) 22:07:03 145.840 MHz, 145.915 MHz
FUNcube-1 24 Oct 22:37:36 22:42:11 79° 76° (ENE) 22:46:44 145.950 - 145.970 MHz USB
Oscar 11 24 Oct 22:40:19 22:44:20 38° 262° (W) 22:48:23 145.825 FM, Beacon 2401.500 USB
HO-68 24 Oct 22:40:31 22:46:05 24° 266° (W) 22:51:43 435.675 MHz FM
UOSAT-12 24 Oct 22:41:04 22:43:49 15° 43° (NE) 22:46:33 437.025 FM, 437.400 FM
RS-15 24 Oct 22:54:26 23:05:30 89° 299° (WNW) 23:16:29 29.354 - 29.394 USB, Beacon 29.352 USB
SO-50 24 Oct 22:56:34 23:01:14 47° 244° (WSW) 23:05:54 436.795 FM
KITSAT 1 24 Oct 23:15:31 23:22:34 35° 253° (WSW) 23:29:37 435.175 FM
MaSat-1 24 Oct 23:23:21 23:26:57 28° 109° (ESE) 23:30:18 437.345 MHz
ZACube-1 24 Oct 23:29:56 23:33:51 28° 264° (W) 23:37:45 437.345 MHz
UOSAT-12 25 Oct 00:19:47 00:24:30 73° 241° (WSW) 00:29:05 437.025 FM, 437.400 FM
MaSat-1 25 Oct 00:59:21 01:02:32 21° 300° (WNW) 01:05:31 437.345 MHz
RS-15 25 Oct 01:10:31 01:19:27 28° 325° (NW) 01:28:29 29.354 - 29.394 USB, Beacon 29.352 USB
Oscar 19 25 Oct 01:38:43 01:42:06 18° 93° (E) 01:45:28 437.125 CW, 437.150 USB
AO-27 25 Oct 01:59:55 02:00:05 10° 90° (E) 02:00:14 436.795 MHz FM
AO-Echo 25 Oct 02:17:20 02:21:33 24° 94° (E) 02:25:44 ?
Oscar 16 25 Oct 02:23:16 02:28:15 51° 100° (E) 02:33:13 437.025 USB, Beacon 2401.1428
JAS-1B 25 Oct 02:37:00 02:43:46 61° 102° (ESE) 02:51:50 435.800 - 435.900 CW/SSB
Uribyol 2 25 Oct 02:43:32 02:48:11 32° 97° (E) 02:52:48 436.500 FM
PCSat 25 Oct 02:46:07 02:48:40 14° 103° (ESE) 02:51:13 145.825 MHz
ITAMSAT 1 25 Oct 02:49:33 02:54:18 35° 98° (E) 02:59:01 435.822 SSB
Gurwin Techsat 1B 25 Oct 03:10:54 03:15:31 30° 96° (E) 03:20:06 435.225 FM
Oscar 19 25 Oct 03:16:45 03:21:40 49° 288° (WNW) 03:26:34 437.125 CW, 437.150 USB
TMSAT-1 25 Oct 03:22:03 03:26:33 28° 96° (E) 03:31:02 436.925 FM
RS-15 25 Oct 03:31:43 03:37:22 15° 1° (N) 03:43:06 29.354 - 29.394 USB, Beacon 29.352 USB
AO-27 25 Oct 03:34:55 03:40:10 83° 285° (WNW) 03:45:22 436.795 MHz FM
AO-Echo 25 Oct 03:55:27 04:00:23 40° 289° (WNW) 04:05:18 ?
Sapphire 25 Oct 04:03:32 04:08:52 68° 114° (ESE) 04:14:16 437.095 MHz 1200 baud AX-25 AFSK
Oscar 16 25 Oct 04:03:47 04:07:10 18° 296° (WNW) 04:10:33 437.025 USB, Beacon 2401.1428
AO-7 25 Oct 04:16:46 04:23:13 24° 95° (E) 04:29:39 29.400 - 29.500 MHz
Uribyol 2 25 Oct 04:23:08 04:27:31 28° 293° (WNW) 04:31:52 436.500 FM
PCSat 25 Oct 04:26:00 04:31:23 72° 299° (WNW) 04:36:50 145.825 MHz
JAS-1B 25 Oct 04:28:50 04:34:03 24° 295° (WNW) 04:39:57 435.800 - 435.900 CW/SSB
ITAMSAT 1 25 Oct 04:29:19 04:33:36 26° 293° (WNW) 04:37:53 435.822 SSB
OPAL 25 Oct 04:48:30 04:53:08 35° 68° (ENE) 04:57:44 ?
Gurwin Techsat 1B 25 Oct 04:50:46 04:55:25 32° 292° (WNW) 05:00:03 435.225 FM
TMSAT-1 25 Oct 05:01:44 05:06:27 33° 291° (WNW) 05:11:09 436.925 FM
Uosat F 25 Oct 05:40:21 05:45:26 85° 104° (ESE) 05:50:28 435.120 FM
JAS-2 25 Oct 05:44:08 05:51:01 33° 94° (E) 05:57:48 435.800 - 435.900 CW/SSB, 435.910 FM
RS-15 25 Oct 05:46:04 05:55:17 29° 36° (NE) 06:04:44 29.354 - 29.394 USB, Beacon 29.352 USB
Sapphire 25 Oct 05:49:09 05:52:48 18° 312° (NW) 05:56:28 437.095 MHz 1200 baud AX-25 AFSK
AO-7 25 Oct 06:08:17 06:16:30 67° 292° (WNW) 06:24:44 29.400 - 29.500 MHz
PCSat 25 Oct 06:14:00 06:15:47 12° 318° (NW) 06:17:35 145.825 MHz
OPAL 25 Oct 06:27:47 06:32:01 26° 262° (W) 06:36:14 ?
STRAND 1 25 Oct 06:33:28 06:38:07 37° 70° (ENE) 06:42:49 ?
Hamsat 25 Oct 06:36:49 06:40:52 46° 99° (E) 06:44:55 145.90 MHz
Uosat F 25 Oct 07:22:12 07:23:27 11° 300° (WNW) 07:24:42 435.120 FM
Saudisat 1A 25 Oct 07:25:39 07:29:50 47° 116° (ESE) 07:34:04 436.775 MHz
JAS-2 25 Oct 07:28:39 07:36:07 51° 290° (WNW) 07:43:33 435.800 - 435.900 CW/SSB, 435.910 FM
SO-67 25 Oct 07:33:39 07:36:24 22° 96° (E) 07:39:07 435.3500 MHz FM
PANSAT 25 Oct 07:55:47 07:58:16 17° 170° (S) 08:00:45 not established
RS-15 25 Oct 07:58:01 08:09:18 89° 61° (ENE) 08:21:04 29.354 - 29.394 USB, Beacon 29.352 USB
AO-7 25 Oct 08:03:58 08:07:45 14° 311° (NW) 08:11:32 29.400 - 29.500 MHz
STRAND 1 25 Oct 08:13:16 08:17:21 24° 265° (W) 08:21:29 ?
Hamsat 25 Oct 08:14:17 08:16:24 14° 294° (WNW) 08:18:32 145.90 MHz
Saudisat 1A 25 Oct 09:06:31 09:09:38 19° 313° (NW) 09:12:47 436.775 MHz
SO-67 25 Oct 09:06:52 09:09:12 17° 290° (WNW) 09:11:32 435.3500 MHz FM
MaSat-1 25 Oct 09:11:11 09:13:11 20° 59° (ENE) 09:15:04 437.345 MHz
Oscar 10/S400 25 Oct 09:13:28 23:51:57 45° 217° (SW) 09:46:56 145.825 - 145.975 CW/USB, Beacon 145.810 USB
PANSAT 25 Oct 09:34:58 09:37:50 20° 182° (S) 09:40:42 not established
UKube-1 25 Oct 09:49:46 09:52:22 15° 93° (E) 09:54:57 145.840 MHz, 145.915 MHz
HO-68 25 Oct 10:08:07 10:15:20 72° 104° (ESE) 10:22:29 435.675 MHz FM
RS-15 25 Oct 10:12:35 10:20:14 21° 259° (W) 10:28:07 29.354 - 29.394 USB, Beacon 29.352 USB
Oscar 11 25 Oct 10:29:31 10:33:37 42° 99° (E) 10:37:41 145.825 FM, Beacon 2401.500 USB
FUNcube-1 25 Oct 10:30:04 10:32:43 16° 93° (E) 10:35:21 145.950 - 145.970 MHz USB
PANSAT 25 Oct 11:15:30 11:17:22 13° 195° (SSW) 11:19:15 not established
ZACube-1 25 Oct 11:20:28 11:24:42 67° 101° (E) 11:28:49 437.345 MHz
UKube-1 25 Oct 11:24:36 11:28:43 41° 288° (WNW) 11:32:48 145.840 MHz, 145.915 MHz
KITSAT 1 25 Oct 11:45:50 11:53:19 44° 110° (ESE) 12:00:50 435.175 FM
HO-68 25 Oct 11:57:12 12:02:18 21° 301° (WNW) 12:07:24 435.675 MHz FM
FUNcube-1 25 Oct 12:05:21 12:09:14 35° 288° (WNW) 12:13:02 145.950 - 145.970 MHz USB
Oscar 11 25 Oct 12:06:51 12:09:25 16° 294° (WNW) 12:11:59 145.825 FM, Beacon 2401.500 USB
ISS 25 Oct 12:27:04 12:30:19 54° 136° (SE) 12:33:35 145.800 FM
Sapphire 25 Oct 12:53:35 12:58:36 37° 55° (NE) 13:03:34 437.095 MHz 1200 baud AX-25 AFSK
Oscar 19 25 Oct 12:53:48 12:57:44 23° 66° (ENE) 13:01:39 437.125 CW, 437.150 USB
SO-50 25 Oct 13:09:22 13:13:51 89° 305° (NW) 13:18:28 436.795 FM
AO-27 25 Oct 13:14:38 13:17:28 15° 62° (ENE) 13:20:18 436.795 MHz FM
PCSat 25 Oct 13:15:50 13:21:13 61° 60° (ENE) 13:26:33 145.825 MHz
JAS-1B 25 Oct 13:22:28 13:27:53 37° 69° (ENE) 13:33:02 435.800 - 435.900 CW/SSB
AO-Echo 25 Oct 13:28:48 13:32:40 24° 66° (ENE) 13:36:38 ?
Oscar 16 25 Oct 13:38:17 13:43:22 62° 74° (ENE) 13:48:28 437.025 USB, Beacon 2401.1428
KITSAT 1 25 Oct 13:41:11 13:48:42 42° 308° (NW) 13:56:17 435.175 FM
Uribyol 2 25 Oct 13:59:29 14:04:21 41° 70° (ENE) 14:09:14 436.500 FM
ISS 25 Oct 14:04:42 14:07:13 20° 333° (NNW) 14:09:45 145.800 FM
ITAMSAT 1 25 Oct 14:05:39 14:10:34 44° 71° (ENE) 14:15:31 435.822 SSB
UOSAT-12 25 Oct 14:28:56 14:33:24 53° 116° (ESE) 14:37:59 437.025 FM, 437.400 FM
Gurwin Techsat 1B 25 Oct 14:30:07 14:35:00 39° 70° (ENE) 14:39:55 435.225 FM
Oscar 19 25 Oct 14:31:57 14:36:47 40° 261° (W) 14:41:38 437.125 CW, 437.150 USB
Sapphire 25 Oct 14:37:15 14:41:51 29° 252° (WSW) 14:46:25 437.095 MHz 1200 baud AX-25 AFSK
TMSAT-1 25 Oct 14:40:56 14:45:44 36° 70° (ENE) 14:50:33 436.925 FM
AO-27 25 Oct 14:51:13 14:56:23 66° 258° (WSW) 15:01:36 436.795 MHz FM
SO-50 25 Oct 14:53:15 14:55:06 12° 319° (NW) 14:56:58 436.795 FM
PCSat 25 Oct 15:00:48 15:04:03 16° 256° (WSW) 15:07:18 145.825 MHz
AO-Echo 25 Oct 15:06:45 15:11:12 35° 263° (W) 15:15:48 ?
JAS-1B 25 Oct 15:13:49 15:18:40 25° 264° (W) 15:23:18 435.800 - 435.900 CW/SSB
AO-7 25 Oct 15:14:01 15:20:53 30° 59° (ENE) 15:27:45 29.400 - 29.500 MHz
Uosat F 25 Oct 15:17:26 15:18:40 11° 60° (ENE) 15:19:54 435.120 FM
Oscar 16 25 Oct 15:20:29 15:23:06 14° 269° (W) 15:25:43 437.025 USB, Beacon 2401.1428
Uribyol 2 25 Oct 15:39:58 15:43:56 22° 266° (W) 15:47:56 436.500 FM
KITSAT 1 25 Oct 15:44:16 15:46:41 11° 334° (NNW) 15:49:07 435.175 FM
ITAMSAT 1 25 Oct 15:46:26 15:50:13 20° 266° (W) 15:54:02 435.822 SSB
Saudisat 1A 25 Oct 15:54:19 15:57:56 24° 49° (NE) 16:01:32 436.775 MHz
UOSAT-12 25 Oct 16:10:32 16:13:52 19° 314° (NW) 16:17:15 437.025 FM, 437.400 FM
Gurwin Techsat 1B 25 Oct 16:10:52 16:15:03 24° 265° (W) 16:19:16 435.225 FM
